Weather History for Branson, MO

Change the Weather History Date:

Thursday, July 4, 2013

  Actual Average (KHRO) Record (KHRO)
Temperature  
Mean Temperature 72 °F 77 °F  
Max Temperature 84 °F 88 °F 105 °F (1901)
Min Temperature 59 °F 67 °F 42 °F (1924)
Degree Days  
Heating Degree Days 0 0  
Month to date heating degree days 0  
Since 1 June heating degree days 6  
Since 1 July heating degree days 0  
Cooling Degree Days 6 12  
Month to date cooling degree days 48  
Year to date cooling degree days 452  
Since 1 June cooling degree days 313  
Growing Degree Days 22 (Base 50)    
Moisture  
Dew Point 54 °F    
Average Humidity 62    
Maximum Humidity 82    
Minimum Humidity 30    
Precipitation  
Precipitation 0.00 in 0.11 in 1.92 in (1988)
Month to date precipitation 0.41  
Year to date precipitation 22.65  
Snow  
Snow 0.00 in 0.00 in - ()
Month to date snowfall 0.0  
Since 1 June snowfall 0.0  
Since 1 July snowfall 0.0  
Snow Depth -    
Sea Level Pressure  
Sea Level Pressure 30.08 in    
Wind  
Wind Speed 3 mph (ESE)    
Max Wind Speed 12 mph    
Max Gust Speed -    
Visibility 10 miles    
Events      
T = Trace of Precipitation, MM = Missing Value Source: NWS Daily Summary

Daily Weather History Graph

Daily Weather History Graph

Search for Another Location

Airport:

Trip Planner

Search our weather history database for the weather conditions in past years. The results will help you decide how hot, cold, wet, or windy it might be!

Date:

Astronomy

Jul. 04, 2013 Rise Set
Actual Time 5:59 AM CDT 8:34 PM CDT
Civil Twilight 5:29 AM CDT 9:04 PM CDT
Nautical Twilight 4:51 AM CDT 9:42 PM CDT
Astronomical Twilight 4:09 AM CDT 10:24 PM CDT
Moon 3:14 AM CDT (7/4) 5:41 PM CDT (7/4)
Length of Visible Light 15h 35m
Length of Day
14h 34m
Waning Crescent, 11% of the Moon is Illuminated
Jul 4
Waning Crescent
Jul 8
New
Jul 15
First Quarter
Jul 22
Full
Jul 29
Last Quarter

Hourly Weather History & Observations

Time (CDT) Temp. Heat Index Dew Point Humidity Pressure Visibility Wind Dir Wind Speed Gust Speed Precip Events Conditions
12:15 AM 69.8 °F - 53.6 °F 56% 30.10 in 10.0 mi NNE 3.5 mph - N/A   Overcast
12:35 AM 68.0 °F - 53.6 °F 60% 30.10 in 10.0 mi ENE 3.5 mph - N/A   Overcast
12:55 AM 68.0 °F - 53.6 °F 60% 30.09 in 10.0 mi NNW 3.5 mph - N/A   Mostly Cloudy
1:15 AM 66.2 °F - 55.4 °F 68% 30.09 in 10.0 mi NW 5.8 mph - N/A   Partly Cloudy
1:35 AM 64.4 °F - 55.4 °F 73% 30.09 in 10.0 mi Calm Calm - N/A   Clear
1:55 AM 62.6 °F - 53.6 °F 72% 30.09 in 10.0 mi SE 3.5 mph - N/A   Clear
2:15 AM 64.4 °F - 55.4 °F 73% 30.09 in 10.0 mi Calm Calm - N/A   Clear
2:35 AM 62.6 °F - 53.6 °F 72% 30.08 in 10.0 mi SE 4.6 mph - N/A   Clear
2:55 AM 62.6 °F - 53.6 °F 72% 30.09 in 10.0 mi NW 3.5 mph - N/A   Clear
3:15 AM 60.8 °F - 53.6 °F 77% 30.08 in 10.0 mi Calm Calm - N/A   Clear
3:35 AM 59.0 °F - 53.6 °F 82% 30.08 in 10.0 mi Calm Calm - N/A   Clear
3:55 AM 59.0 °F - 53.6 °F 82% 30.07 in 10.0 mi Calm Calm - N/A   Clear
4:15 AM 59.0 °F - 53.6 °F 82% 30.08 in 10.0 mi Calm Calm - N/A   Clear
4:35 AM 59.0 °F - 53.6 °F 82% 30.08 in 10.0 mi Calm Calm - N/A   Clear
4:55 AM 60.8 °F - 53.6 °F 77% 30.08 in 10.0 mi Calm Calm - N/A   Clear
5:15 AM 62.6 °F - 53.6 °F 72% 30.09 in 10.0 mi ESE 4.6 mph - N/A   Clear
5:35 AM 62.6 °F - 53.6 °F 72% 30.09 in 10.0 mi ESE 5.8 mph - N/A   Mostly Cloudy
5:55 AM 62.6 °F - 55.4 °F 77% 30.09 in 10.0 mi ESE 6.9 mph - N/A   Overcast
6:15 AM 62.6 °F - 53.6 °F 72% 30.09 in 10.0 mi SE 3.5 mph - N/A   Scattered Clouds
6:35 AM 62.6 °F - 53.6 °F 72% 30.09 in 10.0 mi Calm Calm - N/A   Scattered Clouds
6:50 AM 62.6 °F - 53.6 °F 72% 30.09 in 9.0 mi Calm Calm - N/A   Mostly Cloudy
7:48 AM 66.2 °F - 53.6 °F 64% 30.10 in 10.0 mi Calm Calm - N/A   Mostly Cloudy
8:45 AM 71.6 °F - 53.6 °F 53% 30.11 in 10.0 mi Calm Calm - N/A   Scattered Clouds
9:45 AM 75.2 °F - 53.6 °F 47% 30.11 in 10.0 mi Calm Calm - N/A   Partly Cloudy
10:45 AM 78.8 °F - 55.4 °F 44% 30.11 in - Calm Calm - N/A   Mostly Cloudy
11:45 AM 80.6 °F 80.3 °F 53.6 °F 39% 30.11 in 10.0 mi Calm Calm - N/A   Scattered Clouds
12:45 PM 82.4 °F 81.4 °F 53.6 °F 37% 30.09 in 10.0 mi NNE 5.8 mph - N/A   Mostly Cloudy
1:45 PM 84.2 °F - 50.0 °F 30% 30.07 in 10.0 mi SSW 11.5 mph - N/A   Mostly Cloudy
2:45 PM 80.6 °F - 50.0 °F 34% 30.05 in 10.0 mi Calm Calm - N/A   Mostly Cloudy
3:48 PM 82.4 °F - 50.0 °F 32% 30.04 in 10.0 mi Calm Calm - N/A   Mostly Cloudy
4:45 PM 82.4 °F - 50.0 °F 32% 30.03 in 10.0 mi Calm Calm - N/A   Mostly Cloudy
6:45 PM 77.0 °F - 53.6 °F 44% 30.04 in 10.0 mi SSE 9.2 mph - N/A   Mostly Cloudy
7:45 PM 75.2 °F - 55.4 °F 50% 30.04 in 10.0 mi ESE 5.8 mph - N/A   Scattered Clouds
8:45 PM 71.6 °F - 57.2 °F 60% 30.05 in 10.0 mi ESE 9.2 mph - N/A   Scattered Clouds
9:15 PM 69.8 °F - 57.2 °F 64% 30.05 in 10.0 mi ESE 10.4 mph - N/A   Clear
9:35 PM 68.0 °F - 57.2 °F 68% 30.05 in 10.0 mi ESE 6.9 mph - N/A   Clear
9:55 PM 68.0 °F - 55.4 °F 64% 30.06 in 10.0 mi SE 6.9 mph - N/A   Clear
10:15 PM 68.0 °F - 55.4 °F 64% 30.06 in 10.0 mi SE 4.6 mph - N/A   Clear
10:35 PM 68.0 °F - 53.6 °F 60% 30.06 in 10.0 mi SE 4.6 mph - N/A   Clear
10:55 PM 66.2 °F - 53.6 °F 64% 30.06 in 10.0 mi Calm Calm - N/A   Clear
11:15 PM 66.2 °F - 53.6 °F 64% 30.06 in 10.0 mi Calm Calm - N/A   Clear
11:35 PM 66.2 °F - 53.6 °F 64% 30.06 in 10.0 mi Calm Calm - N/A   Clear
11:55 PM 64.4 °F - 53.6 °F 68% 30.06 in 10.0 mi Calm Calm - N/A   Clear